Погода Сурское

Погода Сурское : погода сейчас, прогноз погоды и архив. Всё, что Вы хотите узнать о погоде Сурское!

Поиск расширенной информации на нашем сайте:

Другие новости

Новости СМИ2

Главная страница сайта

Новости сайта

03.07.2017

Напоминаем, что на нашем специализированном сайте Метеоцентр.Азия вы можете получить высокодетализированные автоматические прогнозы погоды по пунктам России, СНГ и мира в авиационном формате (включающие направление и скорость ветра, видимость, явления погоды, количество и форму облачности, нижнюю и верхнюю границу облачности).

Рекомендуем: Первые признаки беременности.

Погода Сурское - сегодня

Время (UTC), дата Ветер
(°,м/с) 
Видим.   Явления Облачность Т
(°С)
Тd
(°С)
f(%) Тe
(°С)
Pmin
(гПа)
dP
(гПа)
Po
(мм)
O2
(г/м3)
Тmin Tmax R s Состояние
почвы
09 19.07.17 010 (С) 20000 м    8/8 800 м 
[Cu med, cong]
+24.7 +13.1 48 +30  1016.6  -0.4  754  276           
12 19.07.17 290 (З) 20000 м    6/6 600 м 
[Cu med, cong]
+25.5 +12.4 44 +30  1015.7  -0.9  753  275           
15 19.07.17 260 (З) 20000 м    5/5 600 м 
[Cu hum]
+25.1 +14.1 50 +32  1014.9  -0.7  753  275    +26.6       
18 19.07.17 тихо ()   20000 м    5/5 600 м 
[Sc diur, vesp]
+17.8 +15.5 86 +27  1015.9  0.7  753  282           
21 19.07.17 тихо ()   20000 м    5/0 средняя 
[Ac trans]
+16.5 +15.1 91 +25  1015.7  -0.3  753  283           
00 20.07.17 270 (З) 20000 м    8/8 720 м 
[Sc]
+15 +13.9 93 +23  1015.7  0.1  753  285           
03 20.07.17 тихо ()   20000 м    8/3 600 м средняя 
[Cu hum|Ac trans]
+16.7 +14.3 86 +24  1015.9  0.3  753  283  +14.8        влажная 
06 20.07.17 050 (СВ) 20000 м    8/4 600 м средняя 
[Cu med, cong|Ac cast]
+22.1 +14.3 61 +29  1015.4  -0.2  753  278           
09 20.07.17 010 (С) 20000 м    6/6 600 м 
[Cu med, cong]
+24.6 +12.8 48 +30  1014.8  -0.5  752  276           
12 20.07.17 010 (С) 20000 м    8/8 600 м кучево-дожд. 
[Cb calv]
+25.2 +13.3 48 +31  1013.5  -1.2  752  275           
15 20.07.17 010 (С) 20000 м    6/3 600 м кучево-дожд., средняя 
[Cb calv|Ac trans]
+24.4 +14.2 53 +32  1012.9  -0.6  751  275    +26.5       
18 20.07.17 060 (СВ) 20000 м    8/6 600 м кучево-дожд., средняя, верхняя 
[Cb calv|Ac trans|Ci ing]
+20.4 +14.9 71 +29  1013.6  0.5  752  279           
21 20.07.17 тихо ()   20000 м    8/4 600 м верхняя 
[Sc|Ci fib]
+16.6 +14.6 88 +25  1013.5  -0.2  751  282           
00 21.07.17 170 (Ю) 20000 м    8/3 600 м верхняя 
[Sc|Cs]
+14.6 +13.6 94 +22  1012.8  -0.8  751  284           
03 21.07.17 тихо ()   20000 м    8/3 600 м кучево-дожд., средняя 
[Cb calv|Ac trans]
+16.1 +14.8 92 +24  1013.4  0.6  751  283  +14.6        сухая 
06 21.07.17 100 (В) 20000 м    8/5 600 м средняя, верхняя 
[Cu hum|Ac cast|Ci sp]
+22.1 +16 68 +33  1012.8  -0.4  751  276           
09 21.07.17 330 (СЗ) 20000 м    8/8 800 м кучево-дожд. 
[Cb calv]
+25.2 +14.6 52 +33  1012  -0.6  750  274           
12 21.07.17 320 (СЗ) 20000 м    6/6 600 м 
[Cu med, cong]
+25.3 +13.7 49 +32  1011.3  -0.7  750  274           
15 21.07.17 290 (З) 20000 м    6/6 600 м 
[Cu med, cong]
+23.9 +12.6 49 +29  1011.2  0.1  750  275    +25.9       
18 21.07.17 тихо ()   20000 м    5/5 600 м 
[Sc diur, vesp]
+16.6 +13.9 84 +23  1012.3  0.8  750  282           
21 21.07.17 280 (З) 20000 м    6/0 средняя 
[Ac trans]
+17.5 +13.6 78 +25  1012.4  0.1  751  281           
00 22.07.17 250 (З) 20000 м    3/0 верхняя 
[Ci fib]
+12.9 +11.7 92 +17  1012.9  0.3  751  287           
03 22.07.17 260 (З) 20000 м    ясно 
+15.3 +12.5 83 +22  1013.5  0.7  751  284  +11.8        сухая 
06 22.07.17 310 (СЗ) 20000 м    3/3 600 м 
[Cu hum]
+20.2 +11.7 58 +24  1013.7  0.4  752  280           
09 22.07.17 290 (З) 20000 м    6/6 600 м 
[Cu med, cong]
+22.2 +10 46 +23  1014.1  0.4  752  278           
Время (UTC), дата Ветер
(°,м/с) 
Видим.   Явления Облачность Т
(°С)
Тd
(°С)
f(%) Тe
(°С)
Pmin
(гПа)
dP
(гПа)
Po
(мм)
O2
(г/м3)
Тmin Tmax R s Состояние
почвы

Для получения пояснительной информации подведите курсор к названию столбца.

ПОГОДА Сурское - архив

Всё, что Вы хотите узнать о погоде Сурское - удобно и подробно!

Выберите нужную дату (начиная с 1 января 2015* года) и нажмите кнопку "Найти".
Будут отображены архивные сводки погоды по пункту Сурское, начиная с указанной даты.


Отображать данные в формате CSV (для использования в таблицах Excel)


Внимание! Наш архив погоды предназначен исключительно для личного некоммерческого использования в познавательных целях. Если Вам необходимы официальные справки о состоянии погоды (для производственных, юридических, коммерческих и т.п. целей), обращайтесь в органы Росгидромета.

*Примечание: данная дата относится к архиву по метеостанциям СССР (Россия, СНГ, Балтия).
Архив по метеостанциям Зарубежной Европы и Азии (кроме Китая) хранится 10 дней, по другим регионам земного шара (Китай, Африка, Америка, Австралия, Океания) - 1 день.

Сурское - район местоположения метеостанции


Название, широта, долгота, высота метеостанции:
Сурское 54.5°ш. 46.7°д. 100 м над ур. моря [Российская Федерация]

Дополнительная информация

В oтличие oт бoльшинства пoгoдных сайтoв мы публикуем пoдрoбную метеoинфoрмацию в детальнoм прoфессиoнальнoм фoрмате.

Характеристики температуры и влажнoсти вoздуха измеряются на высoте 2 м в тени вдали oт зданий и деревьев.
Скoрoсть ветра измеряется на высoте 10 м (на урoвне рoста челoвека скoрoсть ветра ниже в 1.5-2 раза). Если метеoстанция нахoдится в гoрoде или в лесу, тo скoрoсть ветра занижена на 2-4 м/с пo сравнению с oткрытым местoм. Скoрoсть ветра над акватoриями крупных рек и oзёр, а также на вершинах хoлмoв на 2-5 м/с выше, чем в oбычных услoвиях.
Атмoсфернoе давление в разных тoчках местнoсти мoжет значительнo oтличаться oт давления на метеoстанции, в зависимoсти oт услoвий рельефа (при пoдъёме на 10 м давление пoнижается примернo на 1 мм рт.ст.).